This demonstration page uses our WeatherBlox Daily Observations layout. Learn more.

Left ArrowRight Arrow

38.83388, -104.82136

Hourly Observations for November 18, 2019

Temp ( °F °C ) Dew Point ( °F °C ) Humidity (%) Winds ( mph kmh ) Pressure ( in mb ) Visibility ( mi km ) Precip ( " mm )
12:58 am 00:58 Clear 50 10.2 23 -5.2 34 34 NNW 5 7 29.59 1002 10 16 0.00 0.00
1:58 am 01:58 Clear 48 8.8 22 -5.5 36 36 SSW 3 6 29.61 1003 10 16 0.00 0.00
2:58 am 02:58 Mostly Clear 50 10.1 23 -5.1 34 34 NW 3 6 29.60 1002 10 16 0.00 0.00
3:58 am 03:58 Clear 51 10.7 22 -5.4 32 32 NW 10 17 29.59 1002 10 16 0.00 0.00
4:58 am 04:58 Clear 48 8.7 23 -4.8 38 38 WNW 8 13 29.65 1004 10 16 0.00 0.00
5:58 am 05:58 Clear 49 9.2 23 -4.8 37 37 WNW 5 7 29.64 1004 10 16 0.00 0.00
6:58 am 06:58 Sunny 50 10.2 22 -5.4 33 33 SSW 8 13 29.64 1004 10 16 0.00 0.00
7:58 am 07:58 Sunny 53 11.8 24 -4.4 32 32 S 8 13 29.65 1004 10 16 0.00 0.00
8:58 am 08:58 Sunny 56 13.1 24 -4.2 30 30 SE 9 15 29.64 1004 10 16 0.00 0.00
9:58 am 09:58 Sunny 57 14.1 24 -4.2 28 28 SE 14 22 29.63 1004 10 16 0.00 0.00
10:58 am 10:58 Sunny 58 14.4 24 -4.3 27 27 SSE 12 19 29.63 1003 10 16 0.00 0.00
11:58 am 11:58 Sunny 60 15.5 24 -4.7 25 25 SSE 10 17 29.57 1001 10 16 0.00 0.00
12:58 pm 12:58 Sunny 60 15.4 22 -5.3 24 24 SE 12 19 29.55 1001 10 16 0.00 0.00
1:16 pm 13:16 Sunny 59 15 23 -5 25 25 S 15 24 29.55 1001 10 16 0.00 0.00
1:58 pm 13:58 Sunny 59 15 22 -5.5 24 24 SSE 12 19 29.57 1001 10 16 0.00 0.00
2:58 pm 14:58 Sunny 57 13.9 22 -5.7 25 25 SE 13 20 29.55 1001 10 16 0.00 0.00
3:58 pm 15:58 Mostly Cloudy 56 13.1 24 -4.6 29 29 SSE 16 26 29.55 1001 10 16 0.00 0.00
5:58 pm 17:58 Clear 52 10.9 26 -3.3 37 37 S 13 20 29.61 1003 10 16 0.00 0.00
6:58 pm 18:58 Clear 51 10.5 26 -3.2 38 38 SSW 12 19 29.61 1003 10 16 0.00 0.00
7:58 pm 19:58 Clear 49 9.5 26 -3.1 41 41 SSW 6 9 29.61 1003 10 16 0.00 0.00
8:58 pm 20:58 Clear 49 9.7 26 -3.1 41 41 undefined N/A 29.59 1002 10 16 0.00 0.00
9:58 pm 21:58 Clear 45 7.4 27 -2.9 48 48 Calm 29.60 1002 10 16 0.00 0.00
10:58 pm 22:58 Clear 46 7.7 27 -3 47 47 S 7 11 29.58 1002 10 16 0.00 0.00
11:58 pm 23:58 Clear 45 7 27 -2.9 50 50 SSE 5 7 29.56 1001 10 16 0.00 0.00

Powered by AerisWeather